Regional Weather Roundup
Issued by NWS

Home | Current Version | Previous Version | Graphics & Text | Print | Product List | Glossary On
Versions: 1 2 3 4 5 6 7 8 9 10 11 12 13 14 15 16 17 18 19 20 21 22 23 24 25 26 27 28 29 30 31 32 33 34 35 36 37 38 39 40 41 42 43 44 45 46 47 48 49 50
795
ASUS44 KMEG 102010
RWRTN
TENNESSEE HOURLY STATE WEATHER ROUNDUP
NATIONAL WEATHER SERVICE MEMPHIS TN
200 PM CST WED FEB 10 2016

TNZ002-004-019-021-049-052-054-088>092-102100-
WEST TENNESSEE

CITY           SKY/WX    TMP DP  RH WIND       PRES   REMARKS
MEMPHIS INTL   CLOUDY    40  10  29 W9        30.20F WCI  34
NWS MEMPHIS      N/A     36 N/A N/A MISG        N/A
JACKSON        CLOUDY    31   8  38 W8        30.20S WCI  23
DYERSBURG      CLOUDY    30   7  37 W7        30.21F WCI  23
UNION CITY     CLOUDY    27  10  50 SW7       30.17F WCI  19
PARIS          PTSUNNY   25   7  46 W8        30.18R WCI  16
$$

TNZ008-025-027-028-033-062-065-066-102100-
NORTH MIDDLE TENNESSEE

CITY           SKY/WX    TMP DP  RH WIND       PRES   REMARKS
NASHVILLE      CLOUDY    29  10  45 W7G16     30.16F WCI  22
CLARKSVILLE    CLOUDY    26  10  50 SW9       30.15F WCI  17
SMYRNA         CLOUDY    28  14  55 W13       30.17F WCI  17
COOKEVILLE     SUNNY     28   9  43 NW10      30.08F WCI  19
CROSSVILLE     MOSUNNY   22   6  50 W13G26    30.04S WCI  10
$$

TNZ061-075-076-078-094-096-097-102100-
SOUTH MIDDLE TENNESSEE

CITY           SKY/WX    TMP DP  RH WIND       PRES   REMARKS
FAYETTEVILLE   SUNNY     32   9  37 SW15      30.14F WCI  22
TULLAHOMA      SUNNY     28   9  43 W9        30.12F WCI  20
WINCHESTER     SUNNY     30  12  47 VRB6      30.13F WCI  24
MCMINNVILLE    SUNNY     27  12  54 SW7       30.11F WCI  19
COLUMBIA       SUNNY     30  12  47 W8        30.13F WCI  23
SHELBYVILLE    MOSUNNY   32  16  51 SW12      30.15F WCI  23
$$

TNZ017-018-042-046-047-102100-
NORTHEAST TENNESSEE

CITY           SKY/WX    TMP DP  RH WIND       PRES   REMARKS
TRI CITIES     CLOUDY    22  10  60 W15G28    29.97F WCI   9
$$

TNZ012-013-036-069-073-074-102100-
CENTRAL EAST TENNESSEE

CITY           SKY/WX    TMP DP  RH WIND       PRES   REMARKS
KNOXVILLE      MOSUNNY   30   5  34 W16G25    30.07F WCI  19
OAK RIDGE      SUNNY     30   1  29 SW9G16    30.08F WCI  22
GATLINBURG     PTCLDY    27   3  36 W13       30.05S WCI  16
MORRISTOWN     MOCLDY    27   5  39 NW16      30.01R WCI  14
$$

TNZ083-085-099-102100-
SOUTHEAST TENNESSEE

CITY           SKY/WX    TMP DP  RH WIND       PRES   REMARKS
CHATTANOOGA    PTSUNNY   34   8  33 W12G18    30.13F WCI  25
$$

SKY/WX REPORTED AS FAIR MEANS FEW OR NO CLOUDS BELOW
12 THOUSAND FEET.





USA.gov is the U.S. government's official web portal to all federal, state and local government web resources and services.